{"data":{"norad_id":67376,"intl_designator":"2026-004P","name":"AETHER-5","alt_names":[],"object_type":"PAYLOAD","status":"ACTIVE","operator":null,"country":"CA","launch_date":"2026-01-11","launch_site_code":"AFWTR","launch_vehicle":null,"mission":null,"orbit_class":"UNKNOWN","rcs_meters":null,"size_class":null,"mass_kg":null,"dimensions":null,"purposes":[],"wikipedia_slug":null,"has_3d_model":false,"image_url":null,"decayed_at":null,"tle_current":{"epoch":"2026-09-20T22:56:28.762080Z","epoch_age_seconds":60766,"freshness":"FRESH","line1":"1 67376U 26004P   26263.95588845  .00000361  00000+0  47559-4 0  9995","line2":"2 67376  97.8112 260.7670 0000890 162.3038 197.8208 14.85883573 37510","mean_motion":14.85883573,"eccentricity":8.9e-5,"inclination_deg":97.8112,"raan_deg":260.767,"arg_perigee_deg":162.3038,"mean_anomaly_deg":197.8208,"bstar":4.7559e-5,"rev_number":3751,"period_min":96.912034439727,"perigee_km":610.19184517529,"apogee_km":611.43587842869,"semimajor_km":6988.950861802,"source":"CELESTRAK","updated_at":"2026-09-21T09:00:16.594694Z"}}}